FENGYUN 1C DEB, 37594

Orbit data source: Space-Track

FENGYUN 1C DEB, 37594 is space debris in SSO originally from a launch on Mon, 10 May 1999 UTC launched from the Taiyaun Space Center, China (TSC). Fengyun 1C debris stems from the Chinese weather satellite Fengyun-1C, which was intentionally destroyed by a Chinese anti-satellite missile in 2007. This event dramatically increased the amount of space debris, with thousands of trackable fragments posing hazards to satellites and human spaceflight. The Fengyun 1C debris cloud has become a focal point in discussions about space sustainability and the need for international regulations to prevent the creation of new debris.

Loading next visibility...
Identifier
37594, 1999-025EKN
Orbit
SSO
Country
Flag of CNCN / PRC
Related business
Manufacturer
Unknown
Mission
Spacecraft
Bus & Motor
Unknown
Mass
Unknown
Launch date (UTC)
1999-05-10 (27 years ago)
Launch vehicle
Unknown
Launch site
Taiyaun Space Center, China (TSC)
Object type
Payload
Rocket body
Debris
Shape & HBR
Unknown shape, 0.1 m
Radar Cross Section
Small (<0.1 m²)

Expand to show TLE details & history
Last TLE update: 1 week ago

TLE from 1 week ago
0 FENGYUN 1C DEB
1 37594U 99025EKN 26200.34419488  .00000115  00000-0  84377-4 0  9994
2 37594  98.7123 228.4919 0085884  10.1716 350.1169 14.11315282808452
Epoch: 2026-07-19T08:15Z
TLE epoch observation values (Epoch: 2026-07-19T08:15:38.437Z)
Latitude
-0.00002°
Longitude
167.43781°
Altitude
796.583 km
Speed
7.487 km/s
True Right ascension
15h 13m 58s
True Declination
0° 00' 00"
Sunlit
Object was in daylight at epoch
Visualization orbit readout
Latitude
Unknown
Longitude
Unknown
Altitude
Unknown
Speed
Unknown
Apparent Right ascension
Unknown
Apparent Declination
Unknown
Sunlit
N/A
Visualization observer readout
Local Sidereal Time
02:02:29
Azimuth
Unknown
Elevation
Unknown
Doppler factor
Unknown
Orbital elements
Apogee altitude
914.14 km
Perigee altitude
789.949 km
Semi-major axis
7,230.181 km
Eccentricity
0.00859
Inclination
98.7123°
RAAN
228.4919°
Arg. of periapsis
10.1716°
True anomaly
349.94618°
Mean anomaly
350.1169°
Eccentric anomaly
350.03172°
Mean motion
3.53036 °/min
Orbital period
101.97 mins
BSTAR
0.000084377
Loading maneuver chart data...
Computing Atmospheric mass density...

Documentation

Showing up to 5 results
|